COSMOS 1275 DEB, 42149

Orbit data source: Space-Track

COSMOS 1275 DEB, 42149 is space debris in LEO originally from a launch on Thu, 04 Jun 1981 UTC launched from the Plesetsk Missile And Space Complex (PKMTR). Debris objects in space refer to the collection of defunct objects orbiting the Earth. Examples of debris include non-operational satellites, rocket bodies, and fragments generated from explosions, collisions, or faulty payload assembly.

Loading next visibility...
Identifier
42149, 1981-053RM
Orbit
LEO
Country
Flag of CISCIS
Related business
Manufacturer
Unknown
Mission
Spacecraft
Bus & Motor
Unknown
Mass
Unknown
Launch date (UTC)
1981-06-04 (44 years ago)
Launch vehicle
Unknown
Launch site
Plesetsk Missile And Space Complex (PKMTR)
Object type
Payload
Rocket body
Debris
Shape & HBR
Unknown shape, 0.1 m
Radar Cross Section
Small (<0.1 m²)

Expand to show TLE details & history
Last TLE update: 1 month ago

TLE from 1 month ago
0 COSMOS 1275 DEB
1 42149U 81053RM  25260.55372910  .00001153  00000-0  91131-3 0  9992
2 42149  82.8130 192.9703 0080405 242.8500 116.4450 13.89324614 62698
Epoch: 2025-09-17T13:17Z
TLE epoch observation values (Epoch: 2025-09-17T13:17:22.194Z)
Latitude
0.00005°
Longitude
-3.10019°
Altitude
960.469 km
Speed
7.358 km/s
True Right ascension
12h 51m 52s
True Declination
0° 00' 00"
Sunlit
Object was in daylight at epoch
Visualization orbit readout
Latitude
Unknown
Longitude
Unknown
Altitude
Unknown
Speed
Unknown
Apparent Right ascension
Unknown
Apparent Declination
Unknown
Sunlit
N/A
Visualization observer readout
Local Sidereal Time
05:48:32
Azimuth
Unknown
Elevation
Unknown
Doppler factor
Unknown
Orbital elements
Apogee altitude
986.878 km
Perigee altitude
869.386 km
Semi-major axis
7,306.269 km
Eccentricity
0.00804
Inclination
82.813°
RAAN
192.9703°
Arg. of periapsis
242.85°
True anomaly
117.26626°
Mean anomaly
116.445°
Eccentric anomaly
116.856°
Mean motion
3.47536 °/min
Orbital period
103.59 mins
BSTAR
0.00091131
Loading maneuver chart data...
Computing Atmospheric mass density...

Documentation

Showing up to 5 results
|